Location: Stoke Bliss
(52.2667°N, 2.5167°W)
Time: 12:57:40
(UTC+00:00)

Envisat - Pass Details

Date: 04 December 2021
Orbit: 764 x 766 km, 98.2° (Epoch: 23 January)

Event Time Altitude Azimuth Distance (km) Brightness Sun altitude
Rises 16:50:05 0° 187° (S) 3,222 6.8 -7.4°
Reaches altitude 10° 16:52:31 10° 195° (SSW) 2,300 6.1 -7.8°
Maximum altitude 16:57:15 38° 264° (W) 1,153 4.6 -8.4°
Drops below altitude 10° 17:02:01 10° 332° (NNW) 2,317 5.5 -9.1°
Sets 17:04:29 0° 341° (NNW) 3,248 6.2 -9.4°
